Theta_e
301 298 296 300 299 298 299 300 299 298 299 298 298 297 298 298 298 298 299 299 299 298 297 297 298 296 296 296 295 295 294 294 292 292 292 292 292 294 296 296 296 297 296 296
296 297 299 300 300 301 299 294 294 297 298 298 297 297 298 297 297 299 298 298 298 297 298 298 296 296 295 295 294 293 292 291 291 291 291 290 290 291 293 296 296 296 297 295
295 301 300 300 300 299 299 295 294 299 298 296 295 296 296 298 298 298 298 298 297 296 296 296 296 295 294 294 293 292 291 290 290 291 290 290 290 290 292 294 295 295 296 297
296 301 300 300 300 298 295 298 299 299 293 292 295 295 296 297 298 296 297 297 297 297 296 296 295 293 293 293 292 292 291 290 289 289 289 289 290 290 291 292 294 297 296 297
296 301 300 299 300 297 298 298 298 295 286 293 290 291 296 296 298 297 296 296 297 295 295 295 293 291 291 291 293 292 290 289 289 289 288 289 289 290 291 292 294 295 297 298
294 299 298 298 298 298 296 293 291 290 285 289 287 290 296 295 296 296 296 297 296 295 296 294 292 291 291 290 292 290 289 289 288 287 288 288 288 290 292 292 294 297 299 300
294 297 297 297 298 296 293 285 287 289 286 292 280 291 295 294 294 294 294 297 295 295 295 293 292 291 289 290 291 290 289 289 288 286 287 288 289 291 292 293 295 298 300 301
289 294 292 297 297 292 294 287 288 286 288 289 283 292 294 293 295 296 296 295 294 296 296 293 291 289 288 289 292 290 289 288 287 287 288 288 290 292 293 293 295 298 301 301
291 292 295 296 298 294 291 291 290 284 279 285 286 288 292 293 289 292 293 293 294 296 296 293 291 289 287 288 291 290 288 287 287 287 288 289 291 292 293 294 296 298 300 303
292 292 290 294 297 293 290 291 291 286 288 285 285 280 291 288 289 288 290 293 296 296 295 293 291 288 286 288 291 290 288 286 286 286 287 289 291 292 293 295 297 298 299 302
288 287 290 295 290 290 294 288 288 286 289 287 286 290 285 287 286 285 287 295 296 296 294 293 290 287 286 287 290 289 287 286 286 286 287 289 291 292 293 295 296 298 299 301
294 291 289 292 293 292 291 288 292 291 286 286 290 293 286 284 279 284 290 294 296 295 293 292 288 286 285 286 290 289 287 286 285 286 287 289 290 292 294 295 295 296 297 300
296 287 287 294 292 293 292 293 293 289 291 289 290 294 281 277 282 290 290 294 293 293 292 290 286 285 285 288 290 289 287 285 285 286 287 289 290 292 294 295 295 296 297 299
297 293 291 296 293 285 292 295 296 296 289 294 294 296 296 295 293 290 290 293 293 292 291 289 286 286 286 287 290 288 286 285 285 286 287 289 291 293 294 295 296 296 297 297
293 289 292 291 290 286 293 293 294 295 296 293 297 289 294 294 292 292 293 293 294 292 291 287 286 286 286 287 290 288 286 285 285 286 287 288 290 292 294 295 296 296 297 297
293 288 285 284 293 293 291 293 294 293 294 294 294 294 295 295 293 290 292 293 294 292 291 287 286 287 286 287 290 287 286 285 286 286 287 288 289 291 292 294 295 296 297 297
293 290 288 289 286 285 292 293 292 288 283 291 292 293 291 290 283 287 292 292 293 294 289 287 287 287 287 286 289 288 287 286 286 286 286 287 288 290 291 292 293 295 296 297
291 291 291 287 282 288 296 290 288 289 290 286 286 287 283 287 291 292 294 294 294 292 289 287 287 287 287 286 289 289 288 287 286 286 286 287 288 289 289 290 291 292 293 294
293 293 291 287 276 289 295 292 291 291 293 290 290 291 291 290 291 293 293 292 292 290 289 288 287 288 287 286 288 288 289 288 287 286 286 286 287 287 288 288 289 289 290 289
292 293 293 279 288 288 295 293 293 292 291 292 290 290 290 291 289 287 292 292 291 289 289 288 287 288 287 286 287 288 288 289 288 287 287 287 287 287 287 288 288 289 289 289
288 288 293 288 290 287 290 292 292 290 297 294 292 294 292 291 292 292 292 292 290 289 289 288 288 288 288 287 286 288 288 289 289 289 288 288 288 288 288 288 288 289 289 290
288 287 288 289 288 290 290 289 293 296 296 295 296 296 295 295 295 294 293 291 291 290 290 289 288 288 288 288 286 287 288 288 289 289 289 289 289 289 290 290 290 290 290 290
290 290 288 290 291 292 291 294 297 296 295 296 296 297 296 295 294 294 294 293 291 290 290 289 288 287 289 288 287 286 287 287 288 288 288 288 288 288 289 289 289 289 289 289
285 288 288 288 292 290 292 295 296 296 296 297 296 295 295 294 294 294 294 294 292 290 290 290 288 288 288 289 288 287 286 287 287 287 287 287 287 287 287 287 286 286 286 286
290 287 287 287 292 293 294 296 299 298 297 297 298 298 297 295 295 294 293 294 293 291 290 290 289 289 289 289 289 288 288 287 287 287 286 286 286 286 286 286 286 286 286 286
288 292 292 297 298 297 298 299 299 298 297 298 298 298 298 297 297 295 293 293 293 291 290 290 289 289 289 289 289 289 289 288 287 287 287 286 286 286 286 287 287 287 286 286
Wind_Speed
5 5 2 4 3 4 4 2 4 5 4 5 6 14 23 26 17 18 16 17 16 13 12 15 22 31 36 38 39 39 39 35 35 36 35 35 35 34 34 32 33 31 34 38
6 1 2 3 3 2 3 2 5 6 2 4 6 21 22 11 8 7 12 15 13 11 15 19 27 33 35 37 37 38 37 35 32 33 32 31 31 32 35 33 33 33 31 34
4 1 4 2 1 2 3 4 3 4 6 3 8 8 5 2 3 6 11 13 11 10 17 24 30 32 33 35 36 38 37 34 31 29 30 31 30 30 30 32 31 32 32 28
2 2 2 2 2 4 2 3 1 3 5 2 6 5 6 4 5 5 14 14 11 13 19 26 30 31 33 35 37 38 37 35 31 27 28 27 28 31 31 32 33 33 32 31
4 2 2 1 3 4 3 2 1 3 4 4 4 3 8 3 6 9 14 18 13 14 20 26 27 29 33 37 39 38 36 34 31 27 25 29 28 29 30 32 35 33 35 35
4 2 2 2 2 1 2 4 5 4 4 3 3 4 7 4 5 4 5 19 15 17 23 26 27 32 35 36 37 37 37 36 32 28 26 24 27 27 30 32 35 32 35 32
4 2 1 1 2 3 6 6 4 6 4 5 2 1 11 8 6 6 9 15 16 17 23 27 28 33 33 35 37 37 36 36 32 28 24 24 24 25 28 31 30 30 31 28
3 6 1 1 2 4 2 5 5 5 3 5 3 6 6 5 10 15 16 17 19 19 25 26 26 31 32 34 37 37 37 36 31 26 25 23 23 24 26 28 26 26 25 28
3 5 1 3 2 3 2 2 2 6 1 3 3 8 11 3 7 11 19 20 23 21 26 26 27 30 32 32 34 36 35 33 29 26 24 21 22 22 24 23 22 16 17 19
3 3 1 2 4 6 5 3 4 3 2 5 5 6 7 7 10 6 10 26 29 23 27 26 26 29 29 28 32 34 33 31 28 24 21 20 20 20 21 20 18 16 13 13
4 3 5 2 4 7 2 2 4 4 4 4 3 6 8 10 8 9 12 21 19 24 28 27 25 28 26 26 31 34 32 29 25 22 19 17 15 17 17 18 14 15 14 14
3 3 3 9 2 3 4 6 5 4 6 3 2 10 6 8 5 11 22 23 25 30 29 21 23 25 24 25 30 32 31 26 23 22 19 15 13 13 13 13 12 11 12 13
6 1 3 7 4 3 3 5 4 2 2 7 4 9 3 4 8 17 20 30 32 31 23 19 20 22 23 23 29 30 29 24 22 21 18 14 13 12 12 12 11 9 4 3
7 4 7 6 6 3 3 5 8 7 3 6 15 26 28 25 17 19 23 30 32 24 18 18 19 20 22 22 28 29 27 23 22 19 16 13 11 10 9 8 7 6 4 3
4 5 2 5 6 6 14 18 12 15 17 11 25 12 24 22 17 25 34 37 23 15 17 15 17 20 21 21 26 27 25 23 21 18 16 13 9 8 7 5 3 4 4 5
3 3 2 4 7 6 11 20 16 20 22 18 24 26 34 39 34 29 25 21 20 17 16 13 15 19 19 19 22 25 25 21 19 18 16 14 10 8 5 3 2 1 1 3
5 4 2 5 4 7 9 11 9 5 4 11 15 25 12 13 9 18 23 18 18 16 13 12 14 18 18 16 17 24 22 19 17 16 15 14 12 10 8 7 5 5 4 4
5 5 2 4 5 3 7 3 6 10 10 16 10 14 9 17 24 34 27 19 15 12 9 10 12 15 14 12 11 18 19 19 18 16 16 14 12 11 10 9 10 9 7 7
4 4 2 2 3 9 9 1 5 5 9 13 19 19 23 15 15 17 5 6 7 8 7 9 10 13 12 10 10 11 16 18 19 18 16 14 12 11 11 13 14 15 15 18
4 1 3 3 3 7 4 1 3 4 5 3 12 10 7 3 2 5 4 6 6 7 5 7 9 11 11 8 7 8 9 15 19 19 17 15 14 14 15 15 17 18 20 23
4 2 11 5 5 9 15 9 2 5 7 2 6 13 14 6 9 7 6 6 8 9 6 7 7 9 9 8 5 5 6 9 13 15 15 16 17 17 16 17 18 19 21 22
9 9 5 4 4 10 17 7 9 8 4 7 12 16 17 22 19 14 11 11 11 11 9 7 6 7 7 7 4 4 4 5 7 8 10 11 12 13 14 15 16 17 18 20
3 8 7 12 10 6 21 12 19 17 15 20 20 29 24 23 23 18 15 16 15 14 12 9 8 5 6 5 4 2 2 3 4 5 5 5 6 7 8 9 11 12 12 14
5 8 3 2 11 20 30 38 38 38 41 45 40 38 33 30 32 29 22 20 19 17 16 11 9 6 4 3 2 1 1 2 3 4 5 5 5 6 7 8 10 11 12 12
6 12 5 8 21 13 34 37 43 38 33 34 31 30 31 31 30 32 30 29 23 20 19 16 11 9 5 3 1 1 2 3 5 6 6 7 8 7 7 8 9 9 11 10
12 10 7 14 33 18 25 44 38 36 35 36 37 36 33 31 30 26 26 27 23 22 22 21 15 13 8 6 4 4 4 5 6 6 7 6 6 8 9 9 11 11 12 11
Wind_Direction
17 68 164 167 144 132 136 214 248 259 284 306 254 278 283 297 290 275 259 225 220 237 270 296 306 316 317 320 318 317 313 309 304 302 302 302 302 294 287 284 283 280 275 262
20 136 188 135 135 130 122 133 271 284 309 341 298 292 289 281 265 248 211 200 217 257 277 296 316 321 324 322 322 322 318 314 308 303 302 299 297 293 292 290 288 288 278 266
136 56 129 105 57 85 219 179 239 249 329 283 321 295 325 337 271 238 214 214 231 286 311 318 324 327 328 328 326 324 320 316 311 304 300 296 292 291 292 291 293 294 288 271
199 326 147 73 258 129 301 174 317 302 40 295 31 284 300 302 290 229 218 224 250 292 312 322 329 332 335 333 332 328 323 318 312 306 297 294 287 285 290 294 291 289 287 277
260 168 172 123 234 156 210 18 353 88 93 37 339 60 273 331 281 251 234 235 258 298 316 323 328 331 333 337 333 329 325 321 313 305 296 296 292 288 290 291 293 289 285 281
230 298 180 198 44 308 18 56 40 55 88 23 258 117 276 235 217 287 269 236 263 299 318 323 329 328 331 333 331 332 329 325 317 308 299 294 294 290 288 290 290 285 292 281
329 262 356 142 76 25 61 49 335 352 7 227 312 322 249 261 251 231 251 254 270 297 315 324 325 325 329 332 334 333 331 325 321 312 302 298 292 288 286 287 288 291 286 278
117 328 104 24 147 173 65 142 148 241 277 274 352 238 250 235 282 272 258 261 274 294 321 316 320 323 327 330 333 332 331 326 322 314 307 301 295 284 285 287 285 285 288 271
123 285 319 38 79 93 255 56 164 98 89 23 245 288 288 296 288 260 255 261 270 288 320 313 314 322 325 327 333 332 330 325 323 317 310 305 296 290 288 286 277 282 278 253
182 348 296 279 92 34 135 155 52 11 324 291 282 278 239 291 274 282 265 259 267 289 313 317 316 321 323 328 334 334 332 327 324 320 315 308 301 292 288 287 273 277 280 250
126 100 286 54 195 179 116 12 52 123 158 197 293 255 215 237 238 259 277 285 269 298 312 314 318 319 324 328 338 336 335 331 327 324 320 312 305 299 292 286 282 272 267 255
188 134 245 228 154 157 164 185 156 138 253 231 194 269 221 230 249 271 279 289 288 303 313 313 314 321 329 334 341 340 338 335 334 329 324 322 315 313 302 294 285 277 264 247
176 309 356 337 17 13 204 196 172 138 113 204 156 264 307 290 301 277 277 299 307 307 312 312 318 328 336 338 342 343 342 340 340 336 331 328 328 323 312 302 293 293 281 270
163 173 187 210 216 142 225 204 201 180 171 234 227 271 285 287 294 296 295 306 312 306 308 313 324 332 338 343 345 347 348 349 347 345 342 339 333 335 335 319 303 308 301 279
130 208 267 259 252 206 257 256 226 209 226 219 268 251 267 280 288 294 299 305 307 307 305 314 327 338 341 343 351 354 357 358 355 354 355 353 346 341 349 344 335 320 299 332
176 255 104 285 279 289 277 266 246 237 244 252 258 275 266 277 283 283 294 301 298 300 302 315 333 337 344 347 356 2 4 4 5 5 6 5 7 4 9 23 17 51 83 355
161 151 76 266 342 320 297 257 220 190 221 216 229 241 279 286 270 279 300 300 292 294 298 319 336 338 346 346 357 11 10 10 14 18 22 21 29 38 44 49 56 65 62 22
145 134 153 272 355 320 244 224 185 197 234 213 248 254 230 251 282 298 297 286 275 277 288 316 340 338 345 341 358 16 19 21 24 29 37 34 37 51 66 75 79 77 65 63
150 137 164 246 198 297 286 166 144 169 284 213 227 247 256 276 294 296 301 288 257 248 280 309 338 344 349 349 2 13 26 31 35 38 40 47 53 66 77 85 88 92 97 97
150 151 154 121 208 239 250 153 173 158 291 255 202 244 251 213 328 260 297 279 246 241 267 305 335 345 348 351 5 14 24 36 45 43 45 51 62 74 83 92 101 106 105 104
142 181 212 197 247 279 253 219 108 82 248 197 215 216 201 191 228 294 297 267 249 244 257 293 326 340 344 352 2 11 26 42 48 48 48 56 63 72 81 90 96 101 101 102
167 162 193 158 204 275 192 94 176 223 282 281 296 275 249 253 258 279 282 268 257 247 250 272 304 331 341 348 358 9 10 37 51 55 52 53 59 68 73 77 84 89 91 92
239 191 186 189 207 244 192 225 242 262 273 279 280 286 282 268 261 269 277 273 260 250 245 253 282 308 336 344 351 18 12 23 36 46 45 54 71 79 85 90 95 97 95 96
243 184 235 91 226 239 251 257 266 270 275 286 285 284 283 268 271 271 270 268 252 247 239 238 260 277 304 329 330 13 75 61 45 54 65 64 67 76 80 84 90 89 86 88
180 150 186 260 274 270 262 256 268 282 286 283 285 283 280 278 275 272 264 263 255 244 235 232 240 248 256 269 212 152 76 71 75 79 87 90 85 81 96 109 105 102 100 95
179 200 212 256 264 247 274 280 285 286 282 282 285 283 278 274 278 289 263 254 248 238 231 227 228 232 223 232 211 162 150 141 130 113 106 102 92 96 88 76 85 87 88 91